Regional Weather Roundup
Issued by NWS Little Rock, AR

Home | Current Version | Previous Version | Text Only | Print | Product List | Glossary Off
Versions: 1 2 3 4 5 6 7 8 9 10 11 12 13 14 15 16 17 18 19 20 21 22 23 24 25 26 27 28 29 30 31 32 33 34 35 36 37 38 39 40 41 42 43 44 45 46 47 48 49 50

000
ASUS44 KLZK 162105
RWRLZK

WEATHER ROUNDUP FOR ARKANSAS
NATIONAL WEATHER SERVICE LITTLE ROCK AR
300 PM CST MON JAN 16 2017

NOTE: "FAIR" INDICATES FEW OR NO CLOUDS BELOW 12,000 FEET WITH NO
SIGNIFICANT WEATHER AND/OR OBSTRUCTIONS TO VISIBILITY.

ARZ001-003-010-029-162200-
NORTHWEST ARKANSAS

CITY           SKY/WX    TMP DP  RH WIND       PRES   REMARKS
FAYETTEVILLE   MOSUNNY   63  53  70 SW12G17   29.87F
FORT SMITH     MOSUNNY   67  55  65 CALM      29.88F
HARRISON       CLOUDY    60  59  96 S6        29.88S
BENTONVILLE    MOSUNNY  N/A N/A N/A SW14      29.86F
ROGERS         MOSUNNY   63  49  60 SW16G23   29.86F
SILOAM SPGS    SUNNY     63  39  42 SW21G33   29.86S
HIGHFILL       MOSUNNY   63  48  58 SW18G29   29.85F
SPRINGDALE     PTSUNNY   64  52  63 SW12G25   29.88F
$$

ARZ004-005-016-162200-
NORTH CENTRAL ARKANSAS

CITY           SKY/WX    TMP DP  RH WIND       PRES   REMARKS
BATESVILLE     CLOUDY    63  61  94 S10G17    29.93F
FLIPPIN        CLOUDY    59  54  82 SE7       29.86F
MTN HOME       LGT RAIN  57  57 100 VRB3      29.88F FOG
$$

ARZ040-041-162200-
WEST CENTRAL ARKANSAS

CITY           SKY/WX    TMP DP  RH WIND       PRES   REMARKS
MENA           SUNNY     68  59  73 SW9G18    29.91S
MOUNT IDA      PTSUNNY   67  62  84 VRB6      29.88S
$$

ARZ009-017-025-026-028-162200-
NORTHEAST ARKANSAS

CITY           SKY/WX    TMP DP  RH WIND       PRES   REMARKS
CORNING        CLOUDY    63  63 100 S12       29.96F
JONESBORO      CLOUDY    64  61  90 S13       29.97F
NEWPORT        CLOUDY    63  62  97 S16       29.95F
WALNUT RIDGE   CLOUDY    61  57  88 S15       29.94F
BLYTHEVILLE    CLOUDY    66  60  81 S10       30.01F
$$

ARZ022-023-033-042-044-162200-
CENTRAL ARKANSAS

CITY           SKY/WX    TMP DP  RH WIND       PRES   REMARKS
LITTLE ROCK    CLOUDY    65  64  97 S13G22    29.93F
N LITTLE ROCK    N/A     64  62  95 S9G21     29.95F
JACKSONVILLE   LGT RAIN  64  64 100 SE6       29.92F FOG
SEARCY         LGT RAIN  64  63  96 S13       29.96F
HOT SPRINGS    LGT RAIN  64  64 100 S7        29.91F FOG
RUSSELLVILLE   CLOUDY    62  62 100 CALM      29.89F
CLINTON        CLOUDY    63  63 100 S10       29.90S FOG
$$

ARZ036-162200-
EAST ARKANSAS

CITY           SKY/WX    TMP DP  RH WIND       PRES   REMARKS
WEST MEMPHIS   LGT RAIN  66  62  87 S14       30.00S
$$

ARZ050-053-066-070-073-162200-
SOUTHWEST ARKANSAS

CITY           SKY/WX    TMP DP  RH WIND       PRES   REMARKS
ARKADELPHIA    LGT RAIN  67  64  90 S9        29.91F
CAMDEN         PTSUNNY   72  63  73 S14G20    29.93F
TEXARKANA      LGT RAIN  66  66 100 SW12      29.92S FOG
EL DORADO      CLOUDY    72  64  76 S14G22    29.96S
DE QUEEN       CLOUDY    65  59  81 SW6       29.91S
$$

ARZ056-057-069-162200-
SOUTHEAST ARKANSAS

CITY           SKY/WX    TMP DP  RH WIND       PRES   REMARKS
PINE BLUFF     CLOUDY    68  63  84 S16       29.96F
STUTTGART      CLOUDY    66  59  77 S22       29.97F
MONTICELLO     CLOUDY    70  64  81 S7G16     29.99F

$$





USA.gov is the U.S. government's official web portal to all federal, state and local government web resources and services.